Regional Weather Roundup
Issued by NWS Newport/Morehead, NC

Current Version | Previous Version | Graphics & Text | Print | Product List | Glossary Off
Versions: 1 2 3 4 5 6 7 8 9 10 11 12 13 14 15 16 17 18 19 20 21 22 23 24 25 26 27 28 29 30 31 32 33 34 35 36 37 38 39 40 41 42 43 44 45 46 47 48 49 50

000
ASUS42 KMHX 200225
RWRMHX
WEATHER ROUNDUP FOR EASTERN NORTH CAROLINA
NATIONAL WEATHER SERVICE NEWPORT/MOREHEAD CITY NC
900 PM EST SUN FEB 19 2017

NOTE: "FAIR" INDICATES FEW OR NO CLOUDS BELOW 12,000 FEET
WITH NO SIGNIFICANT WEATHER AND/OR OBSTRUCTIONS TO VISIBILITY

NCZ015>017-031-032-045>047-102-103-200300-
NORTH COAST

CITY           SKY/WX    TMP DP  RH WIND       PRES   REMARKS
EDENTON        CLEAR     55  47  73 CALM      30.01R
ELIZABETH CITY CLEAR     52  44  74 CALM      30.00R
KITTY HAWK     NOT AVBL
MANTEO         CLEAR     48  45  91 CALM      30.01R

$$

NCZ045>047-081-094-103-104-200300-
CENTRAL COAST

CITY           SKY/WX    TMP DP  RH WIND       PRES   REMARKS
FRISCO         CLEAR     49  44  83 CALM      30.00R

$$

NCZ095-097-098-100-101-200300-
SOUTHERN COAST

CITY           SKY/WX    TMP DP  RH WIND       PRES   REMARKS
BEAUFORT       CLEAR     52  49  89 CALM      30.01R
CEDAR ISLAND   NOT AVBL
JACKSONVILLE   CLEAR     52  48  86 CALM      30.02R
PINEY ISLAND   CLEAR    N/A N/A N/A SE3       30.01R
WILMINGTON     CLEAR     53  47  79 CALM      30.03R


$$

NCZ011>013-027>030-043-044-078>080-089-090>093-098-200300-
COASTAL PLAIN

CITY           SKY/WX    TMP DP  RH WIND       PRES   REMARKS
AHOSKIE          N/A     51  46  82 CALM      30.02R
CLINTON        CLEAR     55  47  76 CALM      30.04R
ELIZABETHTOWN  CLEAR     56  47  71 CALM      30.05R
GOLDSBORO      CLEAR     63  44  51 NW3       30.01R
GREENVILLE     CLEAR     50  34  53 CALM      30.04R
HAVELOCK       CLEAR     53  45  74 SW3       30.02R
KENANSVILLE    NOT AVBL
KINSTON        CLEAR     54  45  71 CALM      30.04R
NEW BERN       CLEAR     53  47  79 CALM      30.03R
RICHLANDS      CLEAR     48  45  89 CALM      30.04R
ROCKY MOUNT    CLEAR     54  46  74 W3        30.03R
WASHINGTON     CLEAR     52  45  75 CALM      30.02R
WHITEVILLE     CLEAR     57  47  67 CALM      30.03S

$$

AMZ130-135-150-152-154-156-158-170-250-252-270-ANZ085-086-088-633-658-670-200300-
MARINE OBSERVATIONS

STATION/POSITION TIME  TEMP    WIND        PRES    WAVE   SWELL
                       AIR SEA DIR/SP/G            HT/PER HT/PER
                 (UTC) (F)     (DEG/KT/KT) (MB)    (FT/S) (FT/S)
CHESAPEAKE LIGHT NOT AVBL
64 E VA BEACH    0150   53 51  200/  4/  4 1015.1    2/ 8   2/ 8
DUCK             0200   56 49  210/  2/  3 1015.3
2 E DUCK         0200      49                N/A     1/ 7
OREGON INLET     0200   53 51   CALM  /  1 1015.8
13E OREGON INLT  NOT AVBL
HATTERAS CG      0200   58 57     CALM     1015.6
DIAMOND BUOY     0150   62 67  360/  8/ 10 1015.8    2/ 7   2/ 7
CAPE LOOKOUT     0200   59     280/  5/  5 1016.0
BEAUFORT LAB     0200   54 53   CALM  /  1 1015.4
30 SE NEW RVR IN 0208   63     300/  8/ 10 1016.8
30 SE NEW RVR IN 0213      63                N/A     2/ 6
27 SE WRIGHTSVLE 0208   60 59  270/  4/  8 1016.1
5 SE WRIGHTSVLE  0208   59 56  260/  4/  6 1016.9
225 S CAPE HAT   0150   69 71  340/ 16/ 23 1015.0    5/ 7   2/13
41 SE CHARLESTON 0150   67 69  300/ 10/ 12 1017.4    2/ 6   2/ 6

$$




USA.gov is the U.S. government's official web portal to all federal, state and local government web resources and services.